Notices

What's New in latest Release from April 7th, 2021:

- Updated Glossary, including Speed of Maximum Gust, and Total Hourly Precipitation

- Updated national and regional climate services offices contacts and prices information

- Addition of station inventory lists for 1981-2010, 1971-2000, and 1961-1990 Normals.

If you haven't already, please take our survey and provide feedback about our website: https://eccc.sondage-survey.ca/f/LanguageSelection.aspx?s=442ca660-fcf1-47c0-95a9-59707d6fd709

Hourly Data Report for November 19, 2003

TORONTO CITY
ONTARIO

43°40'00.000" N
79°24'00.000" W
112.50 m
6158355
71508
XTO

Download Data

Hourly Data (November 2003)
Hourly Data Report for November 19, 2003
TIME
LST
Temp Definition
°C
Dew Point Definition
°C
Rel Hum Definition
%
Precip. Amount Definition
mm

Wind Dir Definition
10's deg

Wind Spd Definition
km/h
Visibility Definition
km
Stn Press Definition
kPa
Hmdx Definition


Wind Chill Definition


Weather Definition


00:00 11.0 10.1 94   LegendMM LegendMM LegendMM 98.99     LegendNANA
01:00 11.6 10.2 91   LegendMM LegendMM LegendMM 98.94     LegendNANA
02:00 11.7 10.3 91   LegendMM LegendMM LegendMM 98.91     LegendNANA
03:00 12.5 10.6 88   LegendMM LegendMM LegendMM 98.84     LegendNANA
04:00 11.9 10.7 92   LegendMM LegendMM LegendMM 98.78     LegendNANA
05:00 12.3 10.9 91   LegendMM LegendMM LegendMM 98.76     LegendNANA
06:00 12.0 11.1 94   LegendMM LegendMM LegendMM 98.69     LegendNANA
07:00 11.9 11.0 94   LegendMM LegendMM LegendMM 98.66     LegendNANA
08:00 11.7 11.1 96   LegendMM LegendMM LegendMM 98.64     LegendNANA
09:00 11.4 11.1 98   LegendMM LegendMM LegendMM 98.58     LegendNANA
10:00 12.8 12.7 99   LegendMM LegendMM LegendMM 98.52     LegendNANA
11:00 10.7 10.1 96   LegendMM LegendMM LegendMM 98.45     LegendNANA
12:00 10.5 9.9 96   LegendMM LegendMM LegendMM 98.43     LegendNANA
13:00 10.4 9.3 93   LegendMM LegendMM LegendMM 98.33     LegendNANA
14:00 10.2 9.3 94   LegendMM LegendMM LegendMM 98.34     LegendNANA
15:00 10.2 9.1 93   LegendMM LegendMM LegendMM 98.29     LegendNANA
16:00 10.3 9.2 93   LegendMM LegendMM LegendMM 98.27     LegendNANA
17:00 10.7 8.8 88   LegendMM LegendMM LegendMM 98.53     LegendNANA
18:00 10.4 8.0 85   LegendMM LegendMM LegendMM 98.69     LegendNANA
19:00 9.7 5.7 76   LegendMM LegendMM LegendMM 98.78     LegendNANA
20:00 8.6 5.5 81   LegendMM LegendMM LegendMM 98.81     LegendNANA
21:00 8.0 5.5 84   LegendMM LegendMM LegendMM 98.90     LegendNANA
22:00 7.7 4.8 82   LegendMM LegendMM LegendMM 98.96     LegendNANA
23:00 7.0 3.4 78   LegendMM LegendMM LegendMM 99.06     LegendNANA

Notes on Data Quality.

Legend

  • E = Estimated
  • M = Missing
  • NA = Not Available*
  • [empty] = Indicates an unobserved value
Date modified: